DW6632 Weather Reports


time (UTC)temp
C
wind
direction
speed
KPH
gust
KPH
rain 1hr
cm
rain 24hr
cm
rain mn
cm
humidity
%
barometer
mb
20260504050705 15 349 0.0 0.0 0.00 0.00 0.00 91 1012.4
20260504050204 15 350 0.0 0.0 0.00 0.00 0.00 91 1012.4
20260504044704 15 349 0.0 0.0 0.00 0.00 0.00 91 1012.3
20260504044205 15 350 0.0 0.0 0.00 0.00 0.00 91 1012.3
20260504043705 15 350 0.0 0.0 0.00 0.00 0.00 91 1012.4
20260504043204 15 350 0.0 0.0 0.00 0.00 0.00 90 1012.4
20260504040704 16 350 0.0 0.0 0.00 0.00 0.00 90 1012.5
20260504040205 16 350 0.0 0.0 0.00 0.00 0.00 90 1012.5
20260504034705 16 349 0.0 0.0 0.00 0.00 0.00 90 1012.7
20260504034204 16 350 0.0 0.0 0.00 0.00 0.00 89 1012.8
20260504033704 16 350 0.0 0.0 0.00 0.00 0.00 89 1012.8
20260504033205 16 350 0.0 0.0 0.00 0.00 0.00 89 1012.9
20260504031705 16 349 0.0 0.0 0.00 0.00 0.00 89 1013.1
20260504031205 16 350 0.0 0.0 0.00 0.00 0.00 88 1013.2
20260504030705 16 350 0.0 0.0 0.00 0.00 0.00 88 1013.2
20260504030204 16 349 0.0 0.0 0.00 0.00 0.00 88 1013.3
20260504024705 16 293 0.0 0.0 0.00 0.00 0.00 88 1013.4
20260504023705 16 277 0.0 0.0 0.00 0.00 0.00 87 1013.4
20260504023205 16 277 0.0 0.0 0.00 0.00 0.00 87 1013.3
20260504020705 16 277 0.0 0.0 0.00 0.00 0.00 87 1013.3
20260504020204 16 277 0.0 0.0 0.00 0.00 0.00 87 1013.3
20260504014705 16 276 0.0 0.0 0.00 0.00 0.00 88 1013.3
20260504014205 16 276 0.0 0.0 0.00 0.00 0.00 88 1013.4
20260504013704 16 276 0.0 0.0 0.00 0.00 0.00 88 1013.4
20260504013205 16 273 0.0 4.8 0.00 0.00 0.00 89 1013.3
20260504011704 16 268 1.6 3.2 0.00 0.00 0.00 89 1013.3
20260504011204 16 267 0.0 4.8 0.00 0.00 0.00 89 1013.3
20260504010704 16 260 0.0 4.8 0.00 0.00 0.00 89 1013.3
20260504010205 16 245 3.2 4.8 0.00 0.00 0.00 89 1013.3
20260504004704 16 304 1.6 4.8 0.00 0.00 0.00 90 1013.2
20260504004205 16 284 0.0 0.0 0.00 0.00 0.00 90 1013.2
20260504003705 16 283 0.0 0.0 0.00 0.00 0.00 90 1013.3
20260504003205 16 281 0.0 0.0 0.00 0.00 0.00 90 1013.3
20260504001704 16 280 0.0 0.0 0.00 0.00 0.00 90 1013.4
20260504000705 16 280 0.0 0.0 0.00 0.00 0.00 90 1013.6
20260504000206 16 282 0.0 3.2 0.00 0.00 0.00 89 1013.6
20260503234205 16 271 1.6 4.8 0.00 0.00 0.00 89 1013.9
20260503233705 16 268 1.6 3.2 0.00 0.00 0.00 89 1014.0
20260503231704 16 267 3.2 4.8 0.00 0.00 0.00 89 1014.0
20260503230705 16 263 1.6 4.8 0.00 0.00 0.00 89 1014.1
20260503230205 16 263 1.6 4.8 0.00 0.00 0.00 89 1014.1
20260503224704 16 242 0.0 4.8 0.00 0.00 0.00 89 1014.1
20260503224205 16 241 3.2 4.8 0.00 0.00 0.00 89 1014.1
20260503223704 16 240 3.2 8.0 0.00 0.00 0.00 89 1014.2
20260503223204 16 298 3.2 8.0 0.00 0.00 0.00 89 1014.2
20260503221705 16 297 3.2 4.8 0.00 0.00 0.00 88 1014.2
20260503221205 16 284 4.8 9.7 0.00 0.00 0.00 87 1014.2
20260503220704 17 234 0.0 0.0 0.00 0.00 0.00 87 1014.2
20260503220204 17 227 0.0 0.0 0.00 0.00 0.00 86 1014.0
20260503214705 16 140 0.0 0.0 0.00 0.00 0.00 84 1014.1
20260503214204 17 140 0.0 0.0 0.00 0.00 0.00 85 1014.0
20260503213204 17 140 0.0 1.6 0.00 0.00 0.00 85 1014.1
20260503211704 17 5 0.0 0.0 0.00 0.00 0.00 84 1014.5
20260503211205 17 8 0.0 0.0 0.00 0.00 0.00 83 1014.4
20260503210705 17 35 0.0 0.0 0.00 0.00 0.00 82 1014.3
20260503204205 17 355 0.0 0.0 0.00 0.00 0.00 81 1014.2
20260503203705 17 355 0.0 0.0 0.00 0.00 0.00 81 1014.1
20260503203204 17 355 0.0 0.0 0.00 0.00 0.00 81 1014.0
20260503201204 17 355 0.0 3.2 0.00 0.00 0.00 82 1013.6
20260503200704 17 349 0.0 4.8 0.00 0.00 0.00 81 1013.5
20260503200205 17 339 3.2 8.0 0.00 0.00 0.00 81 1013.3
20260503194706 17 170 3.2 8.0 0.00 0.00 0.00 81 1013.2
20260503193704 17 227 0.0 4.8 0.00 0.00 0.00 80 1013.1
20260503193204 17 91 0.0 0.0 0.00 0.00 0.00 80 1012.9
20260503191704 17 89 0.0 0.0 0.00 0.00 0.00 79 1012.7
20260503190704 17 99 0.0 0.0 0.00 0.00 0.00 79 1012.7
20260503190204 17 99 0.0 4.8 0.00 0.00 0.00 79 1012.7
20260503184704 18 68 1.6 4.8 0.00 0.00 0.00 79 1012.6
20260503184204 18 23 1.6 4.8 0.00 0.00 0.00 79 1012.7
20260503183705 18 61 3.2 4.8 0.00 0.00 0.00 78 1012.9
20260503183204 18 355 0.0 4.8 0.00 0.00 0.00 78 1013.1
20260503181704 18 92 0.0 4.8 0.00 0.00 0.00 79 1012.9
20260503181205 18 119 3.2 9.7 0.00 0.00 0.00 78 1012.7
20260503180705 18 98 1.6 8.0 0.00 0.00 0.00 78 1012.7
20260503180204 18 105 3.2 4.8 0.00 0.00 0.00 78 1012.6
20260503174704 18 102 3.2 12.9 0.00 0.00 0.00 77 1012.5
20260503174204 18 87 3.2 11.3 0.00 0.00 0.00 77 1012.4
20260503173704 18 118 1.6 4.8 0.00 0.00 0.00 77 1012.3
20260503173204 18 74 1.6 9.7 0.00 0.00 0.00 77 1012.2
20260503171704 18 101 3.2 11.3 0.00 0.00 0.00 76 1012.5
20260503171205 18 111 3.2 11.3 0.00 0.00 0.00 75 1012.5
20260503170704 19 78 1.6 4.8 0.00 0.00 0.00 75 1012.5
20260503160204 20 108 1.6 4.8 0.00 0.00 0.00 75 1012.2